Location: ???????
(52.3000°N, 54.4667°E)
Time: 13:46:21
(UTC+00:00)

STARLINK-1107 - Pass Details

Date: 24 January 2020
Orbit: 345 x 354 km, 53.0° (Epoch: 17 February)

Event Time Altitude Azimuth Distance (km) Brightness Sun altitude
Rises 14:09:45 0° 264° (W) 2,172 8.6 -11.5°
Reaches altitude 10° 14:11:46 10° 265° (W) 1,330 7.0 -11.8°
Maximum altitude 14:14:44 80° 354° (N) 367 2.7 -12.2°
Enters shadow 14:16:20 24° 78° (ENE) 783 3.8 -12.5°
